Theta_e
340 341 341 342 344 343 344 344 344 344 344 344 344 344 345 345 346 346 346 346 346 346 347 347 348 348 348 348 348 348 348 347 346 345 342 340 336 334 333 334 337 340 340 340 340 341 341 341 343 342 341 340 338 338 338 337 336 334 331 327 324 320 318
339 340 340 341 342 343 344 344 344 344 343 344 344 344 345 345 345 346 346 346 346 346 346 346 347 347 347 348 347 348 348 348 348 347 344 340 337 336 336 337 339 341 340 340 340 340 341 342 342 341 340 339 336 337 337 336 336 335 331 327 323 320 318
340 340 340 341 342 343 343 344 343 344 344 344 344 344 344 344 345 345 346 346 346 346 347 347 347 347 346 347 348 348 349 348 348 347 346 342 338 336 337 338 340 342 342 340 340 341 341 342 342 341 341 339 337 337 336 336 336 334 331 327 322 319 318
340 341 340 340 341 342 342 344 343 344 344 344 344 344 344 344 344 345 345 346 346 347 347 347 347 347 347 347 348 348 348 348 348 348 347 344 339 336 337 338 339 341 342 341 341 341 341 342 342 342 342 340 338 338 338 338 337 335 332 326 322 319 318
341 341 341 340 341 341 342 343 343 344 344 344 344 344 344 344 344 345 345 346 346 346 346 346 346 347 347 347 348 348 348 348 348 348 348 347 343 338 337 337 338 339 341 342 341 341 342 342 342 343 343 341 339 339 340 339 337 336 334 327 322 320 318
342 342 342 341 341 341 342 343 343 344 344 343 344 344 344 345 344 345 345 346 347 347 347 347 347 347 347 348 348 348 348 348 348 348 348 348 346 341 337 336 338 339 340 341 342 341 342 342 343 343 342 342 340 339 339 340 338 338 337 331 323 320 318
342 342 343 342 342 342 342 342 343 343 344 343 344 344 344 345 345 345 346 346 347 347 347 348 348 348 348 348 349 349 349 348 349 349 349 349 349 346 340 337 337 338 339 340 341 341 341 342 343 343 342 342 341 340 339 339 338 338 338 335 326 319 318
341 343 343 343 343 342 342 343 343 343 344 344 344 345 344 345 346 345 346 347 347 348 348 348 348 348 348 349 349 349 349 349 349 349 350 350 350 349 345 339 337 337 339 339 341 341 341 341 343 343 343 343 342 341 340 339 338 338 339 337 330 321 318
342 342 342 343 343 343 343 343 343 343 343 344 344 345 345 345 346 346 346 347 347 348 348 348 348 348 349 349 349 349 349 349 350 350 351 351 351 350 347 342 338 337 339 339 340 341 341 341 343 343 343 343 343 342 341 340 339 339 340 339 334 326 320
342 341 342 344 344 344 344 343 344 344 343 344 345 345 346 346 346 347 346 347 347 348 347 348 349 349 350 350 350 350 350 350 350 351 351 352 352 351 348 344 341 339 339 340 340 341 341 341 342 343 343 343 343 342 341 340 340 340 341 340 336 331 325
341 341 342 344 344 344 345 344 344 344 344 345 345 345 346 346 347 347 347 347 347 347 348 348 350 350 350 350 350 351 351 351 351 351 352 353 352 351 349 346 344 341 340 341 341 342 342 341 342 344 344 343 343 343 342 341 340 340 341 340 338 335 330
340 341 341 343 344 344 345 344 344 345 345 345 344 345 346 346 347 347 347 348 347 348 349 349 350 350 351 351 351 351 351 352 352 352 353 353 353 352 351 348 346 343 341 341 342 343 342 342 342 343 343 342 342 343 343 342 341 340 340 341 340 337 333
340 342 341 342 344 343 344 345 345 345 345 346 345 346 346 346 346 346 347 348 347 348 349 349 350 351 351 352 352 352 352 352 352 353 353 354 354 353 352 350 348 345 342 341 342 343 343 341 341 342 343 343 343 343 344 344 343 341 341 341 341 340 337
338 340 341 342 343 343 344 344 345 346 346 346 346 346 346 346 346 347 347 348 348 349 349 350 350 351 352 353 353 352 352 352 353 353 354 354 354 354 353 352 349 346 344 343 342 342 341 341 341 341 342 343 343 343 344 345 344 343 343 343 343 342 340
338 339 340 342 342 342 344 344 345 346 346 346 347 346 347 347 347 347 348 348 349 349 350 350 351 351 352 353 353 352 352 353 353 354 354 355 355 355 354 353 352 349 347 344 341 340 340 340 341 342 342 342 343 343 344 344 344 343 344 344 344 343 343
338 340 341 342 342 342 343 343 345 345 345 346 347 347 347 347 347 348 348 348 350 350 351 351 352 352 352 353 352 352 354 354 354 354 355 355 355 356 355 355 354 352 349 345 341 338 338 341 342 342 342 342 342 343 343 343 342 342 344 345 345 345 344
339 342 342 341 342 342 343 344 345 345 345 346 346 347 347 347 348 348 348 349 349 350 351 352 352 353 352 352 352 353 355 355 355 355 355 355 356 356 356 356 355 354 351 347 342 337 337 340 342 343 342 342 342 343 342 341 340 341 344 346 346 346 346
341 342 342 343 343 342 343 343 344 345 345 345 346 346 347 347 348 348 348 349 349 350 351 352 353 353 352 352 353 354 355 356 356 356 355 355 357 357 357 357 356 355 353 349 342 337 337 339 341 343 343 342 343 343 342 340 340 342 344 346 347 347 346
341 343 343 343 342 342 343 343 343 344 345 345 346 346 346 347 347 348 348 348 348 350 352 352 353 353 353 353 354 355 356 356 357 357 356 356 357 357 357 357 356 355 352 349 344 339 338 338 340 342 343 343 343 343 342 341 342 343 345 346 347 347 347
339 342 343 343 343 343 342 343 344 344 344 345 345 345 346 347 347 347 347 348 349 351 351 353 353 353 354 354 354 355 356 357 357 357 356 356 357 358 358 357 356 355 352 350 347 343 338 337 338 340 341 342 342 342 342 342 343 344 345 346 347 348 348
341 341 340 341 343 343 343 343 343 344 344 345 345 345 346 347 348 348 348 349 350 350 350 351 352 352 354 354 355 355 356 357 357 357 357 357 358 358 358 357 357 356 353 352 349 344 339 337 338 338 339 341 341 342 343 343 344 344 345 346 348 348 350
344 344 343 342 342 341 342 343 343 344 344 345 346 346 346 347 347 347 349 349 350 350 350 351 352 352 353 354 355 355 355 356 357 357 357 358 359 359 358 357 357 356 355 354 350 347 345 342 339 338 339 340 342 343 343 343 344 345 345 347 349 350 351
343 344 345 345 344 343 342 343 343 344 344 344 345 345 345 346 346 346 348 349 349 350 350 351 352 352 352 353 354 355 356 356 357 357 358 358 359 359 358 358 357 357 356 355 353 351 347 344 341 340 340 340 341 342 343 343 344 344 345 347 350 351 352
342 341 341 342 344 345 344 344 343 344 344 344 344 345 345 345 346 345 347 349 349 350 350 350 351 351 351 352 352 354 355 356 357 357 358 358 358 358 358 358 358 357 357 356 355 351 346 344 344 342 341 341 341 341 343 343 343 343 345 348 350 352 353
342 341 339 337 339 340 341 344 346 347 348 346 345 346 346 346 346 346 346 347 348 348 349 349 348 349 350 350 351 353 355 356 357 357 357 358 358 358 359 359 358 358 358 357 356 353 349 347 347 344 342 342 342 343 344 344 344 344 346 350 352 353 354
342 342 342 340 338 337 338 339 341 346 350 348 347 347 346 346 346 347 347 348 349 349 349 347 345 346 348 350 351 353 355 355 356 357 357 358 357 358 358 358 358 359 358 358 357 356 354 352 350 348 346 345 345 345 345 345 346 346 349 352 353 354 355
344 342 341 338 337 338 337 336 336 340 343 346 348 349 348 349 349 348 348 349 350 350 349 346 344 344 346 350 352 353 354 355 356 357 357 358 358 359 359 359 359 359 358 358 358 357 356 355 354 352 350 349 348 348 347 347 348 348 350 353 354 356 357
346 345 344 340 338 337 336 336 336 336 337 339 341 343 345 348 350 350 351 351 351 351 349 349 348 347 349 352 354 354 355 355 356 357 358 358 359 360 360 360 360 359 359 358 358 358 358 357 356 355 354 353 352 351 350 350 351 351 353 354 356 357 358
341 343 344 344 343 340 337 336 335 335 337 336 337 338 340 342 346 350 354 354 351 350 350 351 351 351 352 353 354 355 356 356 357 357 357 358 359 360 360 360 361 361 360 360 359 359 359 358 358 357 356 355 354 354 353 353 353 354 355 356 358 359 359
343 342 341 341 341 341 341 341 339 339 340 340 341 342 342 343 345 348 351 350 350 352 354 354 353 353 354 355 355 356 356 356 357 358 358 359 359 359 360 360 361 361 361 361 361 360 359 359 359 358 357 357 356 355 355 355 355 356 357 359 359 360 359
351 351 350 349 349 349 349 348 347 346 345 345 346 347 348 350 350 352 352 352 353 356 356 356 358 358 357 356 356 356 356 357 357 357 358 358 359 360 360 360 361 362 362 361 362 361 361 360 359 359 358 357 356 356 356 357 357 358 359 360 360 359 358
351 352 352 353 354 355 355 355 354 354 353 352 351 352 354 353 353 354 357 358 358 359 359 360 362 362 361 360 360 359 358 358 358 359 359 358 359 360 360 360 361 361 361 362 362 361 361 360 359 359 358 358 358 358 358 358 359 360 361 360 358 357 355
349 351 352 352 353 354 355 356 357 357 358 358 357 356 355 354 352 353 356 357 360 361 362 362 363 362 363 362 362 361 362 361 361 360 359 359 359 360 361 362 362 362 362 362 362 361 361 360 360 360 359 359 359 359 359 360 361 360 360 359 357 355 352
347 349 350 352 353 353 353 354 354 354 356 356 357 357 357 357 357 357 358 359 361 362 363 364 363 364 364 364 364 363 363 362 362 361 361 360 360 360 361 362 362 362 362 362 362 361 361 361 360 360 360 360 360 360 361 361 360 359 359 357 354 351 348
348 348 350 351 352 352 352 352 352 352 352 352 352 353 352 353 353 354 356 356 357 360 362 364 364 364 364 364 364 365 364 363 364 362 362 361 361 361 362 363 363 363 362 362 362 361 360 360 361 360 360 360 361 361 361 360 360 359 356 352 347 344 343
347 347 348 349 349 350 350 350 351 352 352 352 352 352 352 352 352 352 353 353 354 356 358 360 362 363 364 365 366 366 366 365 364 363 362 362 362 362 362 362 363 363 362 362 362 360 358 359 359 360 361 361 361 361 360 359 357 353 349 345 343 343 343
345 345 346 346 346 347 348 348 349 350 351 351 352 352 353 354 354 353 352 352 353 353 354 355 355 356 359 363 365 366 366 365 364 365 365 363 362 363 364 364 364 363 363 364 362 360 358 358 357 358 359 358 358 357 354 351 349 346 343 343 343 343 343
345 345 345 345 345 346 346 347 347 348 348 349 349 349 350 349 348 348 348 348 349 350 349 349 346 347 352 358 361 363 364 360 357 358 361 364 364 363 363 363 362 359 358 360 361 359 357 355 354 353 352 351 350 348 344 342 343 343 343 343 342 341 341
Wind_Speed
44 45 48 50 51 52 54 56 57 57 58 58 59 59 59 59 58 58 58 57 56 55 53 52 51 50 49 47 46 44 42 39 38 38 39 38 37 36 37 36 35 34 33 31 29 28 27 27 27 27 26 24 24 23 22 21 20 19 18 16 15 14 14
39 45 47 48 50 52 54 56 57 57 58 58 59 59 59 60 59 59 59 59 58 56 55 54 53 52 50 48 47 46 45 42 39 38 39 39 38 37 37 37 35 35 33 31 29 28 28 27 27 27 25 24 23 23 23 21 20 19 18 17 16 15 15
41 46 47 48 50 53 54 55 56 57 58 59 59 59 60 61 61 61 60 59 59 58 57 56 54 53 51 49 49 48 46 44 42 39 38 39 39 39 38 37 36 35 34 32 30 29 29 29 28 27 26 25 23 23 23 22 21 19 18 18 17 16 16
43 48 49 49 51 53 54 55 56 58 58 59 60 60 61 62 61 61 60 60 59 59 58 58 56 54 52 51 50 49 47 46 44 41 38 37 39 40 40 40 38 37 36 34 31 30 29 29 29 28 27 26 25 24 24 23 21 19 19 20 19 18 18
42 46 45 46 48 51 53 55 57 58 59 59 59 60 61 61 61 61 60 60 60 59 58 58 57 55 54 52 51 50 48 46 44 42 39 37 38 40 41 42 40 39 38 36 33 32 31 30 30 29 29 28 26 25 25 24 22 21 21 22 21 20 19
40 42 43 45 48 50 53 56 57 59 60 60 60 60 60 60 60 60 61 61 60 59 58 57 57 56 55 54 53 51 49 47 45 43 41 38 38 40 42 42 42 41 39 38 36 34 33 32 31 31 30 29 28 27 26 25 24 23 23 23 23 22 21
40 42 45 47 49 51 54 56 57 59 60 60 60 59 58 58 58 60 60 60 60 60 59 58 58 57 56 55 54 53 51 49 47 44 42 40 39 39 41 42 42 42 41 40 39 37 35 34 33 32 31 31 30 29 28 27 26 25 25 25 25 24 23
40 42 45 47 49 52 53 55 57 58 59 59 58 56 55 55 56 58 58 59 59 59 59 59 59 58 57 56 55 54 52 50 48 45 43 41 40 39 40 42 42 42 42 41 40 39 38 36 34 33 33 32 32 31 29 28 27 27 27 26 26 25 25
43 43 44 45 49 51 53 56 57 56 57 56 55 54 54 54 55 56 58 59 59 59 59 59 59 58 57 56 55 54 52 50 48 46 44 42 41 39 39 41 42 42 42 41 40 40 39 38 36 35 34 33 33 32 31 30 29 28 28 28 27 27 27
42 40 41 44 47 49 52 54 53 53 53 54 54 54 53 54 55 56 57 57 58 59 59 58 58 57 56 56 55 54 52 51 49 47 45 43 41 40 39 40 41 41 41 41 40 40 40 39 38 37 36 35 34 34 33 33 32 30 30 29 28 28 28
36 36 38 41 45 46 48 49 49 50 52 53 54 54 53 54 55 56 57 57 58 59 58 57 57 56 56 56 55 54 53 52 50 48 46 43 41 40 39 39 40 41 41 40 40 40 40 40 39 39 38 37 36 35 35 34 34 32 31 29 29 29 29
32 34 35 38 42 44 46 47 49 50 52 52 54 54 55 55 55 55 56 57 58 58 57 57 56 56 56 56 55 54 53 52 51 50 47 44 42 40 38 38 39 40 41 41 40 40 40 40 40 40 39 39 38 37 36 36 35 34 32 31 30 30 30
36 37 38 40 44 46 44 45 48 49 51 53 54 55 56 56 55 55 56 56 57 56 56 56 56 55 55 55 54 54 53 53 52 50 48 45 42 40 39 39 39 39 40 40 40 40 40 40 41 41 41 40 40 39 38 37 36 36 35 34 32 32 31
35 36 38 40 44 44 42 44 47 48 50 52 54 55 55 56 56 56 56 56 56 56 56 55 55 55 54 54 54 54 54 53 51 50 48 45 43 41 40 39 39 39 39 40 40 40 40 40 41 41 41 41 41 41 40 39 38 38 37 36 35 34 34
29 31 33 36 39 39 40 44 47 48 50 52 54 55 55 55 55 55 55 55 55 55 55 55 55 55 54 54 54 54 54 52 50 49 47 46 44 43 42 41 40 39 39 40 40 40 39 40 40 41 42 42 42 42 42 41 41 40 39 38 37 37 36
29 30 32 36 38 38 40 45 48 49 50 51 52 54 55 55 55 55 55 55 55 55 55 55 55 55 55 55 55 54 53 52 51 49 48 47 46 45 43 42 41 40 40 40 40 40 40 40 41 42 42 42 42 42 43 43 42 41 41 40 39 38 37
28 31 33 37 40 41 43 46 48 50 50 51 53 53 54 55 55 55 55 54 54 55 54 54 54 55 55 55 54 53 52 52 51 49 48 48 47 46 45 43 42 42 41 41 41 41 41 41 42 43 42 43 43 43 43 43 42 42 41 41 40 38 37
28 31 33 36 40 41 43 44 47 49 51 52 53 53 54 54 54 54 54 54 54 54 54 53 54 55 55 54 53 53 53 52 51 50 49 48 48 47 46 44 43 43 42 42 42 42 42 43 43 43 43 43 44 44 44 43 42 42 42 41 40 39 37
28 32 34 38 41 42 43 44 46 49 51 52 53 54 54 54 54 54 53 53 54 53 53 53 53 54 54 53 53 53 53 52 51 50 49 49 49 48 47 45 44 44 44 43 43 43 43 44 44 44 43 44 44 44 44 43 43 43 42 41 41 39 36
21 26 31 36 40 41 42 43 45 48 51 53 54 54 53 52 52 52 51 52 52 52 52 53 53 53 53 53 53 53 53 52 52 51 50 49 49 48 48 47 46 45 45 44 44 45 45 45 45 44 44 44 44 44 44 44 43 43 42 41 40 38 35
14 19 25 30 34 37 39 39 41 45 49 52 53 52 50 50 50 50 50 50 51 51 52 52 52 53 53 53 53 53 52 52 52 52 50 50 50 50 49 48 48 47 47 46 46 46 46 46 46 45 44 44 44 44 44 44 44 43 42 41 40 38 35
6 10 15 19 25 31 36 38 40 42 44 48 51 52 50 49 48 48 50 51 50 51 51 51 52 53 53 53 53 53 53 53 53 52 51 50 51 51 50 50 49 49 48 48 48 47 47 47 46 45 45 44 44 45 45 44 43 42 41 41 40 38 35
5 5 5 8 13 19 25 32 37 39 40 42 46 48 49 48 46 47 49 51 50 49 49 50 51 52 52 53 53 53 53 54 53 52 51 51 52 52 52 51 50 50 50 50 49 49 48 48 47 46 45 44 44 44 44 44 42 41 40 41 40 38 36
9 8 6 5 6 9 15 22 27 29 31 34 37 41 43 44 43 44 48 49 49 48 48 49 49 50 51 52 53 53 53 54 54 53 52 52 53 53 53 51 51 51 51 51 51 49 48 48 47 46 45 44 43 43 43 43 41 40 40 40 40 39 37
11 10 8 6 4 5 9 14 19 22 24 26 30 34 38 41 42 43 46 48 48 48 47 47 47 48 49 51 52 53 53 53 53 53 53 53 53 53 52 51 51 51 51 51 51 50 48 47 48 47 46 45 44 44 43 42 40 40 40 40 40 38 36
11 10 9 8 7 5 3 5 8 13 19 23 26 29 33 37 40 42 44 45 46 47 47 46 43 43 46 48 50 51 51 52 53 54 54 54 54 53 52 51 50 50 51 51 51 50 49 49 48 48 47 47 45 45 43 42 41 40 40 40 39 36 35
9 8 7 6 6 6 5 3 3 3 9 15 20 24 28 31 35 38 41 42 43 45 46 45 42 42 44 46 48 49 50 51 53 54 54 54 54 53 52 51 50 50 50 51 50 50 50 50 49 49 48 47 47 45 44 42 40 40 39 39 37 35 35
7 6 5 4 4 3 2 1 2 2 1 5 9 14 19 22 27 31 35 38 41 43 44 44 43 43 44 45 46 48 50 52 53 53 54 54 53 53 53 52 51 51 50 50 49 50 50 50 49 49 48 48 47 45 44 42 40 39 38 37 35 34 34
6 5 3 3 2 2 3 3 2 2 2 2 4 6 10 14 18 23 29 33 35 38 41 42 43 44 44 44 46 47 49 51 52 53 53 53 53 54 54 53 52 52 51 50 49 49 50 50 50 49 48 48 46 45 44 42 40 39 37 35 34 33 33
6 4 3 1 1 2 3 3 3 3 3 3 4 5 7 10 12 16 21 24 26 30 35 38 40 42 43 44 46 48 49 50 52 53 53 53 54 54 54 54 53 52 51 50 50 50 50 49 50 50 49 47 46 45 44 42 40 38 36 34 32 31 30
5 5 3 2 2 1 1 2 2 3 4 4 5 6 8 9 11 12 15 17 21 26 31 34 37 41 43 45 47 48 48 49 51 53 53 54 54 55 55 55 54 52 51 50 50 50 50 50 50 49 49 48 46 45 43 41 39 37 34 31 29 26 23
5 4 3 2 1 1 0 1 2 3 3 4 6 8 9 10 11 13 15 17 19 23 27 30 34 37 41 44 46 47 48 49 52 53 53 53 54 54 56 56 55 54 52 51 50 50 50 51 50 49 49 47 46 44 41 39 37 34 31 29 26 22 20
7 5 4 4 4 4 3 2 1 1 3 5 7 9 11 13 14 15 17 18 19 21 23 26 29 33 36 39 43 45 47 49 50 51 51 52 53 54 54 54 54 53 52 52 52 52 52 52 51 50 49 47 44 42 39 36 33 31 29 26 23 21 21
9 8 7 7 5 4 4 4 3 1 1 4 7 9 12 14 15 17 18 19 20 21 22 23 26 29 31 35 39 43 46 48 49 51 52 53 54 55 55 53 52 52 53 52 52 52 53 53 52 50 48 46 42 39 35 33 31 30 26 23 21 21 21
9 9 8 7 6 5 4 4 4 4 4 4 5 6 8 10 13 15 18 20 21 22 23 24 26 28 31 33 36 39 43 46 48 49 52 54 54 55 55 55 55 54 53 53 53 51 49 49 50 49 46 42 39 37 35 32 29 26 22 20 20 20 19
8 9 9 8 7 6 6 6 7 7 7 8 8 9 10 11 12 12 14 16 19 21 23 24 25 27 30 31 32 35 39 44 48 51 53 55 57 58 57 54 54 56 55 53 52 47 43 44 46 45 42 38 34 31 29 27 24 21 20 20 20 19 19
13 14 14 13 11 10 9 8 7 7 7 7 8 8 8 8 9 9 11 12 13 15 17 18 19 21 24 27 29 31 32 36 43 51 57 58 58 60 60 55 52 52 53 54 51 42 36 39 41 37 32 29 26 23 20 18 17 18 19 20 19 19 19
19 19 18 17 16 15 14 13 12 11 9 8 7 7 8 9 9 10 11 10 9 10 11 11 12 13 16 21 26 29 32 33 35 44 57 67 66 60 60 59 55 49 45 46 45 36 29 26 26 21 17 16 17 18 18 17 18 20 20 20 19 19 19
Wind_Direction
208 209 210 209 209 208 209 209 209 210 211 212 213 213 214 215 215 216 218 220 221 223 224 224 225 226 226 227 228 228 229 231 233 234 234 233 231 230 229 228 228 228 226 225 226 228 229 229 231 234 237 236 235 233 233 233 232 230 230 231 232 236 239
208 210 211 209 209 209 210 210 210 211 212 213 214 213 214 215 215 216 218 220 221 223 224 224 225 226 227 228 229 229 229 230 232 235 236 234 231 230 230 230 230 230 229 228 228 230 231 231 234 237 238 235 232 231 231 232 232 231 233 234 233 234 236
208 211 211 210 209 210 211 211 211 212 212 213 214 213 214 215 216 217 218 219 221 222 223 224 225 227 228 228 228 229 230 230 231 233 235 235 232 230 230 230 231 232 232 231 230 231 233 235 238 240 239 237 235 233 231 231 231 232 236 238 236 234 234
209 211 211 211 210 211 211 211 212 212 213 215 215 215 216 216 217 218 219 220 221 221 222 223 225 226 227 228 228 229 230 231 232 233 235 236 234 232 230 230 231 232 233 232 232 233 234 237 239 241 240 239 238 237 235 233 231 232 238 239 237 234 234
211 212 211 210 211 211 211 212 213 213 214 215 216 217 218 218 217 217 219 220 221 223 224 225 225 225 227 228 228 230 231 232 233 233 234 236 235 234 232 231 231 232 233 233 233 234 235 237 239 240 240 239 239 239 239 237 234 233 237 240 239 236 234
213 212 210 209 210 210 211 213 214 214 215 216 217 218 218 217 216 217 219 219 220 222 223 224 224 225 227 227 228 229 230 231 232 233 234 235 235 235 234 233 233 233 233 234 234 234 235 236 238 239 240 239 239 240 240 240 237 236 237 240 240 238 237
212 211 210 209 209 210 212 213 215 216 216 217 218 219 218 216 216 217 218 218 219 221 221 222 223 225 226 227 227 228 230 231 232 232 233 234 235 236 235 234 234 234 234 234 235 235 235 236 237 239 240 240 240 241 241 241 240 239 239 240 240 240 239
216 214 212 209 209 210 211 213 215 215 216 217 217 217 216 216 216 217 217 218 219 220 221 223 224 225 225 225 226 228 230 231 232 232 233 234 235 236 236 234 234 234 235 235 235 236 237 237 237 238 239 240 240 242 242 243 243 242 242 241 241 241 241
220 218 215 211 209 211 211 213 215 215 215 216 216 216 216 216 216 217 218 219 219 220 222 224 224 225 225 225 226 229 229 231 232 233 233 233 234 235 235 234 233 234 235 235 236 236 237 238 238 238 239 240 241 242 243 244 243 243 243 243 243 243 243
222 219 216 212 210 211 212 213 214 213 214 214 214 216 217 217 217 218 219 218 219 222 224 224 224 224 224 225 226 228 229 230 232 232 233 233 234 234 234 233 233 233 234 235 236 236 237 237 238 239 240 241 242 242 243 243 243 242 244 245 245 244 245
224 221 217 211 210 211 211 212 213 212 213 213 214 216 217 217 218 218 219 219 220 223 224 223 223 223 224 225 225 227 229 230 231 232 233 233 233 233 233 232 232 232 233 234 236 237 237 237 238 238 240 241 242 243 243 244 244 243 243 245 246 246 246
226 223 218 212 210 212 211 211 213 212 212 213 214 216 218 218 219 219 220 221 222 223 222 222 223 223 224 224 224 227 229 229 230 232 233 233 233 233 232 232 232 232 232 233 235 237 237 238 238 239 240 242 243 244 245 245 245 245 245 245 246 247 246
226 222 218 213 212 213 210 209 212 212 212 214 215 217 219 219 220 220 220 222 222 222 221 222 223 223 223 223 224 226 228 230 231 232 233 234 234 233 232 232 232 232 232 233 234 236 238 238 238 239 241 243 244 245 246 247 247 247 247 246 246 246 247
226 222 217 212 212 213 209 208 212 213 213 215 216 218 219 221 222 222 223 224 223 221 220 221 222 222 223 223 224 226 228 230 231 232 233 235 235 235 234 232 232 233 233 233 234 236 237 239 239 240 242 244 245 246 247 248 248 248 248 247 246 246 247
227 221 214 209 212 212 209 209 212 214 216 217 217 218 219 220 221 222 223 224 222 220 220 221 221 222 223 223 225 228 229 229 230 232 233 235 235 235 234 233 233 233 233 234 234 235 237 238 240 241 243 245 246 247 247 248 249 249 249 248 247 247 248
224 219 212 207 210 212 212 212 213 215 217 217 218 219 219 220 221 221 222 223 222 221 221 220 220 221 223 225 228 229 228 227 229 231 232 234 235 235 234 233 233 232 233 234 234 235 236 238 239 240 243 245 246 247 248 248 250 250 250 249 249 250 251
219 214 210 209 212 214 214 214 215 216 218 219 220 220 220 221 222 222 223 223 222 223 222 220 220 221 223 227 230 228 227 227 228 229 232 233 234 234 234 234 233 232 233 234 234 235 235 237 239 240 242 244 246 247 248 249 250 251 251 251 251 251 252
215 210 208 211 215 217 216 215 215 216 219 221 223 222 222 222 222 221 222 223 225 225 222 221 221 222 225 228 229 226 226 228 228 228 231 233 233 233 233 233 233 233 233 233 234 234 235 236 238 240 242 244 246 247 249 250 252 252 252 252 252 252 254
215 212 210 212 216 219 220 220 220 221 222 224 225 225 225 225 223 224 226 227 228 225 221 221 223 224 226 227 227 226 227 227 227 228 230 232 232 232 232 232 233 234 233 233 233 233 234 236 238 240 242 244 245 247 250 252 252 253 254 254 254 253 254
221 219 218 216 216 218 222 223 223 222 224 225 227 228 228 226 226 230 231 229 226 223 222 223 224 225 227 226 226 227 228 227 228 230 231 232 231 230 231 232 233 234 234 233 232 233 234 235 237 239 241 243 245 248 250 252 253 254 255 255 255 255 254
231 232 232 228 224 223 225 227 227 225 225 226 228 229 227 227 229 231 231 228 225 224 225 226 226 228 228 227 226 227 228 228 229 230 231 230 229 229 231 233 233 234 233 232 232 233 234 235 236 238 240 242 245 247 250 252 253 254 255 256 256 255 255
216 231 236 235 233 233 232 232 232 232 231 231 230 228 228 230 232 232 231 229 227 227 227 227 227 228 228 227 227 227 228 229 230 230 229 228 228 229 231 232 233 233 232 232 233 233 234 235 236 238 239 241 244 246 249 251 252 254 255 256 256 255 255
131 158 196 220 232 237 235 234 234 235 236 234 231 230 230 231 231 231 230 228 226 227 227 226 227 228 228 229 229 229 229 230 229 229 228 227 228 230 232 232 233 233 232 231 231 232 233 234 235 237 239 241 243 245 248 250 252 254 256 257 256 255 254
112 123 138 177 210 223 227 232 236 239 241 240 237 234 232 229 227 228 229 228 227 227 226 226 229 230 230 232 232 231 230 230 230 229 229 229 231 232 233 232 233 233 232 231 231 232 234 234 235 237 239 240 242 244 247 250 252 255 257 257 257 256 256
94 103 111 123 149 196 221 233 239 241 242 242 239 233 228 225 225 227 229 230 229 228 227 229 233 234 234 235 234 232 230 230 230 230 230 232 234 234 234 233 233 233 232 232 232 233 234 234 235 237 238 239 242 244 246 249 252 254 256 257 257 257 257
79 85 90 99 107 116 156 224 238 236 234 235 236 232 227 226 227 228 231 232 230 228 230 234 240 242 241 238 234 232 232 231 231 231 233 235 236 235 235 234 233 233 233 233 233 233 234 234 235 236 238 239 241 243 245 248 250 253 256 256 257 258 258
70 66 66 72 82 93 105 116 118 179 219 225 229 231 230 232 232 233 234 233 231 233 237 241 245 247 245 240 236 235 235 234 234 234 235 236 236 235 234 234 233 234 234 234 233 233 233 233 234 236 238 239 240 242 245 247 250 253 255 256 258 259 258
70 61 58 55 48 48 43 53 89 94 183 215 223 229 233 238 242 243 242 239 239 243 246 245 244 244 243 240 237 236 237 237 237 236 235 235 234 233 233 233 233 234 234 233 234 234 233 232 233 234 236 238 240 242 245 247 249 252 254 256 258 259 259
80 71 61 50 31 360 349 341 331 331 322 283 260 253 247 245 246 248 247 247 249 253 251 247 245 245 244 242 240 239 238 238 237 236 234 233 232 232 233 233 232 231 231 231 232 232 231 231 232 233 234 236 238 241 243 245 248 250 252 254 256 257 258
100 106 117 116 335 322 331 329 322 329 325 300 288 286 281 272 262 253 249 251 256 257 254 252 251 249 247 246 245 242 241 240 238 236 234 233 232 231 231 232 231 230 229 229 229 230 230 230 230 231 232 234 236 238 240 242 245 248 250 251 253 253 253
103 112 123 149 174 209 251 270 288 299 299 290 275 265 267 272 273 267 258 254 254 254 253 254 252 250 248 247 245 243 242 241 239 236 234 233 231 229 230 229 228 227 227 227 227 227 228 229 230 231 232 234 235 236 238 240 242 244 246 246 245 243 241
87 85 79 78 78 59 260 246 260 261 264 271 266 258 255 256 259 260 258 254 251 249 249 250 249 249 249 248 246 245 244 241 238 236 233 231 230 230 229 228 225 224 225 225 226 227 228 229 230 231 232 233 233 234 235 237 239 240 239 236 233 233 233
70 62 52 48 44 40 38 33 8 233 221 230 237 243 248 250 251 254 255 255 254 250 248 247 247 248 250 251 251 249 245 241 238 235 232 230 230 230 228 225 222 222 223 224 225 226 227 228 229 229 229 230 230 231 232 233 233 231 228 227 229 234 236
51 42 39 39 38 40 43 38 30 23 245 227 230 236 241 245 249 253 256 258 259 257 253 249 246 246 248 250 252 251 248 244 241 238 234 232 229 227 223 220 218 219 222 226 227 226 226 226 227 228 228 227 225 224 224 223 223 223 224 230 236 238 233
36 31 30 28 23 21 21 21 13 358 344 329 311 296 283 274 269 266 264 264 265 265 263 257 252 248 245 245 246 248 249 247 242 238 235 232 227 223 221 220 220 220 222 224 226 227 228 228 227 226 226 225 223 221 218 217 219 223 228 233 233 229 221
53 48 44 39 32 24 16 12 8 358 352 351 345 336 329 320 311 303 293 282 274 271 270 267 265 261 256 251 249 248 249 248 245 241 236 229 224 219 216 215 217 218 219 220 221 225 230 233 232 229 225 220 218 219 220 221 224 227 225 220 214 211 210
80 75 72 69 66 63 54 44 33 21 17 14 1 352 351 349 343 338 328 312 296 286 281 280 280 276 269 263 257 251 246 244 244 241 233 225 221 216 210 205 206 208 212 215 216 216 221 229 231 228 220 213 210 210 210 211 212 211 209 206 203 204 208
90 88 85 82 79 76 72 69 65 60 58 57 51 49 55 57 54 41 23 2 331 301 288 291 293 282 268 261 256 251 245 243 247 247 233 218 212 210 206 200 196 193 197 205 206 196 190 202 211 207 196 192 196 198 197 197 199 200 200 199 199 201 206